Lid_Strength_Index
-1 1 1 3 7 10 10 9 5 7 6 4 4 5 6 5 7 11 2 0 0 0 -1 -1 -1 -1 -1 -1 -1 -1 -1 -1 -1 -2 -1 -2 -2 -2 -2 -2 -2 -2 -2 -2 -2 -2 -2 -2 -2
2 3 3 5 8 14 12 6 6 5 5 4 4 4 6 7 4 3 2 0 -0 -0 -1 -1 -1 -1 -1 -1 -1 -1 -1 -1 -1 -2 -1 -1 -2 -2 -2 -2 -2 -2 -2 -1 -1 -1 -1 -1 -1
2 2 5 7 8 11 9 6 6 5 4 4 5 4 4 6 3 3 1 0 -0 -0 -1 -1 -1 -1 -1 -1 -1 -1 -1 -1 -1 -1 -1 -1 -2 -2 -2 -2 -2 -2 -1 -1 -1 -1 -1 -1 -1
4 5 4 8 9 7 6 5 5 5 4 5 4 6 4 2 2 1 0 -0 0 -0 -0 -1 -1 -1 -1 -1 -1 -1 -1 -1 -1 -1 -1 -1 -1 -1 -2 -2 -2 -2 -1 -1 -1 -1 -1 -1 -1
4 5 7 8 7 6 5 5 4 6 6 5 5 6 6 2 1 1 0 0 0 0 -0 -1 -1 -1 -1 -1 -1 -1 -1 -1 -1 -1 -1 -1 -1 -2 -2 -2 -2 -1 -1 -1 -1 -1 -1 -1 -1
6 4 8 9 7 6 5 4 4 5 7 7 6 6 5 2 1 1 0 0 0 0 -0 -1 -1 -1 -1 -1 -1 -1 -1 -1 -1 -1 -1 -1 -1 -1 -1 -2 -1 -1 -1 -1 -1 -1 -1 -1 -1
7 6 8 8 8 7 5 4 5 6 6 7 4 8 5 3 1 1 0 0 0 -0 -0 -1 -1 -1 -1 -1 -1 -1 -1 -1 -1 -1 -1 -1 -1 -1 -1 -1 -1 -1 -1 -1 -1 -1 -1 -1 -1
5 6 8 7 8 7 5 4 4 6 7 4 3 8 8 3 1 1 0 0 0 0 -0 -0 -1 -1 -1 -1 -1 -1 -1 -1 -1 -1 -1 -1 -1 -1 -1 -1 -1 -1 -1 -1 -1 -1 -2 -2 -2
3 7 8 7 7 6 4 5 3 3 5 5 5 5 3 2 1 1 1 1 1 1 0 -0 -0 -0 -1 -1 -1 -1 -1 -1 -1 -1 -1 -1 -1 -1 -1 -1 -2 -2 -1 -1 -1 -1 -1 -1 -1
6 7 7 5 6 6 5 5 4 4 5 5 5 4 2 2 2 2 2 2 2 1 1 0 -0 -0 -1 -1 -1 -1 -1 -1 -1 -1 -1 -1 -1 -1 -1 -2 -2 -2 -2 -2 -1 -1 -1 -1 -1
5 7 5 5 5 4 4 5 4 5 5 5 5 3 3 2 2 2 2 2 2 1 1 0 -0 -0 -0 -0 -1 -1 -1 -1 -1 -1 -1 -1 -1 -1 -1 -1 -1 -1 -1 -1 -1 -1 -1 -0 -0
6 5 5 5 5 5 5 4 5 4 4 3 3 2 2 3 3 2 2 2 2 1 1 0 -0 -0 -0 -0 -0 -0 -0 -1 -1 -1 -2 -1 -1 -1 -1 -0 -0 -0 -1 -0 -1 -0 -0 -0 -0
5 5 4 4 4 4 4 5 5 4 3 2 2 2 2 2 2 2 1 1 1 1 1 0 -0 -0 -1 -1 -0 -0 -0 -0 -1 -1 -1 -1 -1 -0 -1 -1 -1 -1 -1 -0 -0 -0 -0 -0 -0
4 5 5 4 4 4 5 5 5 4 3 4 3 3 2 2 2 2 2 2 1 1 1 0 0 -0 -0 -1 -1 -1 -1 -2 -2 -1 -1 -1 -2 -1 -0 -0 -0 -1 -1 -1 -1 -0 0 0 -0
4 6 5 5 4 5 4 6 6 4 3 3 3 3 3 2 2 2 2 2 1 1 -0 -0 0 -0 -0 -1 -1 -1 -1 -1 -1 -1 -2 -1 -2 -1 -1 -0 -0 -1 -2 -1 -1 -0 -0 0 0
6 6 8 5 5 5 5 8 5 3 4 4 3 3 3 3 3 2 2 1 1 1 -0 -1 0 0 0 -0 -0 -0 -1 -1 -1 -1 -2 -2 -2 -2 -1 -0 -0 -1 -1 -1 -0 0 1 1 1
6 9 8 7 5 5 5 7 5 3 4 4 4 4 4 4 3 2 2 1 1 1 1 -0 -1 -0 0 -0 -0 -0 -1 -0 -1 -1 -1 -1 -1 -1 -1 -0 -0 -1 -0 -0 0 0 0 1 1
9 9 8 8 6 6 6 6 5 4 4 4 4 4 4 4 4 2 2 2 1 1 0 -1 -0 -1 -1 0 -0 -0 -0 -0 -1 -1 -1 -1 -1 -1 -1 -0 -0 -1 -0 0 0 1 0 1 2
7 7 8 7 5 6 6 6 6 5 4 4 4 4 5 5 3 2 2 2 1 1 1 1 1 -0 -0 0 1 1 1 1 1 -0 -1 -1 -1 -1 -1 -0 -0 -0 0 0 1 1 3 2 3
7 8 8 7 6 6 6 7 5 5 5 4 4 5 5 5 4 3 3 2 2 2 1 1 1 1 1 0 0 1 1 1 1 -0 1 0 -1 -0 -1 -0 0 -0 0 1 2 3 3 3 2
7 8 8 8 6 6 7 8 7 5 5 4 4 4 4 5 5 4 3 3 2 2 2 1 1 1 0 0 0 1 -0 0 1 1 0 -0 -1 -1 -0 0 -0 -0 -0 1 0 1 2 2 1
8 6 7 7 8 10 7 11 8 6 6 5 5 5 5 4 4 4 3 3 2 2 1 1 1 1 0 0 1 1 2 3 1 1 0 0 -0 -0 0 -0 -0 -0 -0 0 0 -0 1 1 3
7 6 6 7 8 9 8 10 8 6 7 7 6 5 5 4 4 4 3 3 2 1 1 1 1 1 0 0 0 1 2 1 1 0 0 0 -0 -0 0 -0 0 -0 -0 0 0 1 1 1 2
5 6 7 7 8 12 9 10 10 8 7 7 6 5 5 4 4 3 3 2 2 1 1 1 1 1 0 0 0 1 1 1 1 1 1 1 0 -0 -1 -1 -1 -1 -0 0 0 0 0 1 1
6 8 11 12 12 13 8 10 9 6 5 6 6 6 5 4 4 4 3 3 2 2 2 1 1 1 0 0 0 1 1 1 1 1 1 1 1 1 0 -0 -0 -0 -0 -0 -0 0 0 1 1
7 8 11 15 14 12 9 11 9 5 5 4 5 5 5 4 4 4 3 3 2 2 2 1 1 1 1 0 0 0 -1 1 0 1 1 1 1 0 -1 -1 -1 -1 -1 -1 -0 0 0 0 1
8 9 7 10 10 12 10 8 6 5 6 6 6 6 5 5 4 4 3 2 2 2 2 1 1 1 1 0 0 0 0 0 0 0 -0 0 -0 -0 -1 -1 -1 -1 -1 -0 -0 0 1 0 1
7 6 10 10 15 17 12 11 10 9 8 7 7 6 5 4 4 3 3 3 2 2 1 1 1 1 1 0 0 0 0 0 -0 -0 0 -0 -0 -1 -0 -0 -0 -0 -0 -0 -0 0 0 1 1
8 9 8 9 10 15 16 12 8 7 7 7 6 6 5 5 4 4 3 2 2 2 1 1 1 1 1 0 0 0 0 0 -0 -0 -0 -0 -1 -0 -0 -0 0 1 0 -0 0 0 0 1 1
7 8 8 12 13 11 12 12 6 6 6 6 6 5 5 4 4 3 3 3 2 2 2 2 1 1 1 1 0 0 -0 -0 0 -0 -0 -1 -0 -0 0 1 2 2 2 1 1 1 0 1 1